When you browse on this site, cookies collect data to enhance your experience and personalize the content and advertising you see.
Visit our Privacy Policy to learn more. By continuing to use the site, you agree to this use of cookies and data.
  • Em Portugal
  • Lista de países
  • Para 7 dias
  • Temperatura da água
  • Mapas de satélite
  • Mapa do tempo
  • Widgets de tempo
  • user-avatar
    Iniciar Sessão

    Previsão horária em Cofu

    Hoje, 19 Abril, Sexta-feira

    Tempo Temperatura Precipitação Vento Pressão Humidade
    00:00 +8°C° 0 mm 1 m/s 669 mmHg 79%
    01:00 +8°C° 0 mm 1 m/s 668 mmHg 76%
    02:00 +8°C° 0 mm 1 m/s 668 mmHg 72%
    03:00 +7°C° 0 mm 2 m/s 668 mmHg 67%
    04:00 +7°C° 0 mm 2 m/s 668 mmHg 67%
    05:00 +9°C° 0 mm 1 m/s 668 mmHg 68%
    06:00 +9°C° 0 mm 1 m/s 668 mmHg 69%
    07:00 +10°C° 0 mm 2 m/s 669 mmHg 64%
    08:00 +14°C° 0 mm 2 m/s 670 mmHg 59%
    09:00 +16°C° 0 mm 1 m/s 670 mmHg 55%
    10:00 +17°C° 0 mm 2 m/s 671 mmHg 50%
    11:00 +18°C° 0 mm 2 m/s 671 mmHg 45%
    12:00 +19°C° 0 mm 2 m/s 671 mmHg 41%
    13:00 +19°C° 0 mm 2 m/s 670 mmHg 40%
    14:00 +19°C° 0 mm 2 m/s 670 mmHg 39%
    15:00 +18°C° 0 mm 2 m/s 669 mmHg 43%
    16:00 +17°C° 0 mm 2 m/s 669 mmHg 50%
    17:00 +15°C° 0 mm 2 m/s 669 mmHg 56%
    18:00 +14°C° 0 mm 1 m/s 669 mmHg 63%
    19:00 +12°C° 0 mm 1 m/s 669 mmHg 67%
    20:00 +11°C° 0 mm 1 m/s 669 mmHg 71%
    21:00 +10°C° 0 mm 1 m/s 669 mmHg 75%
    22:00 +9°C° 0 mm 1 m/s 669 mmHg 75%
    23:00 +9°C° 0 mm 1 m/s 669 mmHg 76%

    Amanhã, 20 Abril, Sábado

    Tempo Temperatura Precipitação Vento Pressão Humidade
    00:00 +8°C° 0 mm 1 m/s 669 mmHg 77%
    01:00 +8°C° 0 mm 1 m/s 669 mmHg 78%
    02:00 +6°C° 0 mm 0 m/s 669 mmHg 79%
    03:00 +6°C° 0 mm 0 m/s 669 mmHg 80%
    04:00 +6°C° 0 mm 0 m/s 670 mmHg 80%
    05:00 +6°C° 0 mm 0 m/s 670 mmHg 81%
    06:00 +6°C° 0 mm 0 m/s 670 mmHg 81%
    07:00 +10°C° 0 mm 1 m/s 671 mmHg 72%
    08:00 +12°C° 0 mm 2 m/s 672 mmHg 63%
    09:00 +14°C° 0 mm 2 m/s 672 mmHg 53%
    10:00 +15°C° 0 mm 2 m/s 672 mmHg 51%
    11:00 +16°C° 0 mm 3 m/s 672 mmHg 49%
    12:00 +16°C° 0 mm 3 m/s 673 mmHg 47%
    13:00 +16°C° 0 mm 3 m/s 672 mmHg 50%
    14:00 +16°C° 0 mm 3 m/s 672 mmHg 53%
    15:00 +14°C° 0 mm 3 m/s 671 mmHg 56%
    16:00 +13°C° 0 mm 3 m/s 671 mmHg 64%
    17:00 +12°C° 0 mm 3 m/s 671 mmHg 72%
    18:00 +10°C° 0 mm 2 m/s 670 mmHg 80%
    19:00 +9°C° 0 mm 2 m/s 671 mmHg 83%
    20:00 +9°C° 0 mm 2 m/s 671 mmHg 86%
    21:00 +9°C° 0 mm 1 m/s 671 mmHg 89%
    22:00 +8°C° 0 mm 1 m/s 670 mmHg 89%
    23:00 +8°C° 0 mm 1 m/s 670 mmHg 89%

    Depois de amanhã, 21 Abril, Domingo

    Tempo Temperatura Precipitação Vento Pressão Humidade
    00:00 +7°C° 0 mm 1 m/s 670 mmHg 89%
    01:00 +7°C° 0 mm 1 m/s 670 mmHg 86%
    02:00 +7°C° 0 mm 1 m/s 669 mmHg 82%
    03:00 +6°C° 0 mm 1 m/s 669 mmHg 79%
    04:00 +7°C° 0 mm 1 m/s 669 mmHg 74%
    05:00 +7°C° 0 mm 1 m/s 669 mmHg 69%
    06:00 +8°C° 0 mm 1 m/s 669 mmHg 64%
    07:00 +11°C° 0 mm 1 m/s 670 mmHg 57%
    08:00 +14°C° 0 mm 1 m/s 671 mmHg 50%
    09:00 +18°C° 0 mm 1 m/s 672 mmHg 42%
    10:00 +18°C° 0 mm 2 m/s 672 mmHg 41%
    11:00 +18°C° 0 mm 2 m/s 672 mmHg 40%
    12:00 +19°C° 0 mm 3 m/s 672 mmHg 39%
    13:00 +19°C° 0 mm 3 m/s 671 mmHg 42%
    14:00 +19°C° 0 mm 2 m/s 671 mmHg 45%
    15:00 +19°C° 0 mm 2 m/s 670 mmHg 48%
    16:00 +17°C° 0 mm 2 m/s 670 mmHg 56%
    17:00 +16°C° 0 mm 2 m/s 670 mmHg 65%
    18:00 +14°C° 0 mm 1 m/s 669 mmHg 73%
    19:00 +13°C° 0 mm 1 m/s 669 mmHg 77%
    20:00 +12°C° 0 mm 1 m/s 670 mmHg 81%
    21:00 +11°C° 0 mm 1 m/s 670 mmHg 85%
    22:00 +11°C° 0 mm 1 m/s 670 mmHg 84%
    23:00 +10°C° 0 mm 1 m/s 670 mmHg 82%

    22 Abril, Segunda-feira

    Tempo Temperatura Precipitação Vento Pressão Humidade
    00:00 +10°C° 0 mm 1 m/s 669 mmHg 81%
    01:00 +10°C° 0 mm 1 m/s 669 mmHg 79%
    02:00 +10°C° 0 mm 1 m/s 669 mmHg 77%
    03:00 +10°C° 0 mm 1 m/s 669 mmHg 74%
    04:00 +10°C° 0 mm 1 m/s 669 mmHg 74%
    05:00 +10°C° 0 mm 1 m/s 670 mmHg 75%
    06:00 +10°C° 0 mm 1 m/s 670 mmHg 75%
    07:00 +13°C° 0 mm 1 m/s 671 mmHg 67%
    08:00 +16°C° 0 mm 1 m/s 672 mmHg 59%
    09:00 +20°C° 0 mm 1 m/s 673 mmHg 52%
    10:00 +20°C° 0 mm 1 m/s 673 mmHg 51%
    11:00 +20°C° 0 mm 2 m/s 672 mmHg 50%
    12:00 +20°C° 0 mm 2 m/s 672 mmHg 50%
    13:00 +19°C° 0.2 mm 2 m/s 672 mmHg 55%
    14:00 +19°C° 0.2 mm 2 m/s 671 mmHg 60%
    15:00 +18°C° 0.2 mm 2 m/s 671 mmHg 66%
    16:00 +17°C° 0.2 mm 2 m/s 671 mmHg 72%
    17:00 +16°C° 0.2 mm 2 m/s 671 mmHg 78%
    18:00 +14°C° 0.2 mm 2 m/s 671 mmHg 84%
    19:00 +14°C° 0.1 mm 1 m/s 672 mmHg 87%
    20:00 +13°C° 0.1 mm 1 m/s 672 mmHg 90%
    21:00 +12°C° 0.1 mm 1 m/s 673 mmHg 93%
    22:00 +12°C° 0 mm 1 m/s 673 mmHg 93%
    23:00 +12°C° 0 mm 1 m/s 673 mmHg 94%

    23 Abril, Terça-feira

    Tempo Temperatura Precipitação Vento Pressão Humidade
    00:00 +12°C° 0 mm 1 m/s 673 mmHg 94%
    01:00 +11°C° 0 mm 1 m/s 673 mmHg 94%
    02:00 +11°C° 0 mm 1 m/s 672 mmHg 94%
    03:00 +10°C° 0 mm 0 m/s 672 mmHg 93%
    04:00 +10°C° 0 mm 0 m/s 673 mmHg 92%
    05:00 +10°C° 0 mm 0 m/s 673 mmHg 91%
    06:00 +10°C° 0 mm 0 m/s 673 mmHg 90%
    07:00 +13°C° 0 mm 1 m/s 674 mmHg 81%
    08:00 +15°C° 0 mm 1 m/s 674 mmHg 72%
    09:00 +17°C° 0 mm 2 m/s 675 mmHg 64%
    10:00 +18°C° 0 mm 2 m/s 675 mmHg 62%
    11:00 +18°C° 0 mm 2 m/s 675 mmHg 61%
    12:00 +19°C° 0 mm 2 m/s 675 mmHg 60%
    13:00 +18°C° 0.1 mm 2 m/s 674 mmHg 63%
    14:00 +18°C° 0.1 mm 3 m/s 674 mmHg 66%
    15:00 +18°C° 0.1 mm 3 m/s 674 mmHg 69%
    16:00 +17°C° 0 mm 2 m/s 674 mmHg 74%
    17:00 +16°C° 0 mm 2 m/s 674 mmHg 79%
    18:00 +15°C° 0 mm 2 m/s 674 mmHg 84%
    19:00 +14°C° 0 mm 1 m/s 674 mmHg 87%
    20:00 +14°C° 0 mm 1 m/s 674 mmHg 90%
    21:00 +13°C° 0 mm 1 m/s 674 mmHg 92%
    22:00 +13°C° 0 mm 1 m/s 674 mmHg 92%
    23:00 +12°C° 0 mm 1 m/s 674 mmHg 92%

    24 Abril, Quarta-feira

    Tempo Temperatura Precipitação Vento Pressão Humidade
    00:00 +11°C° 0 mm 0 m/s 674 mmHg 92%
    01:00 +11°C° 0 mm 0 m/s 673 mmHg 92%
    02:00 +11°C° 0 mm 0 m/s 673 mmHg 92%
    03:00 +11°C° 0 mm 0 m/s 673 mmHg 92%
    04:00 +11°C° 0 mm 0 m/s 673 mmHg 90%
    05:00 +11°C° 0 mm 0 m/s 673 mmHg 88%
    06:00 +11°C° 0 mm 0 m/s 673 mmHg 86%
    07:00 +13°C° 0 mm 1 m/s 674 mmHg 81%
    08:00 +15°C° 0 mm 1 m/s 674 mmHg 76%
    09:00 +16°C° 0 mm 2 m/s 674 mmHg 71%
    10:00 +16°C° 0.2 mm 2 m/s 674 mmHg 70%
    11:00 +17°C° 0.2 mm 2 m/s 673 mmHg 69%
    12:00 +17°C° 0.2 mm 2 m/s 673 mmHg 68%
    13:00 +17°C° 0.2 mm 2 m/s 673 mmHg 67%
    14:00 +16°C° 0.2 mm 2 m/s 672 mmHg 67%
    15:00 +16°C° 0.2 mm 2 m/s 672 mmHg 66%
    16:00 +15°C° 0.2 mm 2 m/s 671 mmHg 71%
    17:00 +14°C° 0.2 mm 2 m/s 671 mmHg 75%
    18:00 +13°C° 0.2 mm 1 m/s 670 mmHg 80%
    19:00 +13°C° 1.1 mm 1 m/s 670 mmHg 83%
    20:00 +13°C° 1.1 mm 1 m/s 670 mmHg 85%
    21:00 +12°C° 1.1 mm 1 m/s 669 mmHg 88%
    22:00 +13°C° 1.1 mm 1 m/s 669 mmHg 88%
    23:00 +13°C° 1.1 mm 1 m/s 668 mmHg 88%
    Mostrar mais